Regional Weather Roundup
Issued by NWS Midland/Odessa, TX

Skip options and go directly to product.
Home | Oldest Version | Previous Version | Current Version | All | Text Only | Save Text | Print | Product List | Glossary On

Skip product version selection by date and time.   
396
ASUS44 KMAF 210410
RWRMAF
MIDLAND AREA WEATHER ROUNDUP
NATIONAL WEATHER SERVICE MIDLAND TX
1100 PM CDT SUN APR 20 2014

...IN SOUTHWEST TEXAS AND SOUTHEAST NEW MEXICO...

CITY           SKY/WX    TMP DP  RH WIND       PRES   REMARKS
ALPINE         PTCLDY    60  46  59 CALM      30.18R
ANDREWS        FAIR      66  54  65 SW9       30.04R
ARTESIA        CLEAR     63  43  48 W12       30.04R
BIG SPRING     CLEAR     65  57  76 S12       30.04S
CARLSBAD       CLEAR     65  46  50 SW9       30.02R
DRYDEN           N/A     69  64  84 N7        30.05R
FORT STOCKTON  CLEAR     66  57  72 S12       30.05S
GUAD PASS      CLEAR     61  37  41 W12       30.18R
HOBBS          CLEAR     59  43  55 SW5       30.06S
MARFA          PTCLDY    59  36  41 N7        30.17R
MIDLAND AIRPK  CLEAR     68  60  75 S10       30.04R
MIDLAND INTL   CLEAR     67  60  78 S12       30.03R
ODESSA         CLEAR     67  59  75 S10       30.04S
PECOS          CLEAR     65  48  53 CALM      30.02S
PRESIDIO       FAIR      78  37  23 N10       30.00R
SEMINOLE       CLEAR     63  49  61 SW6       30.04S
SNYDER         CLEAR     66  60  81 S12       30.01R
WINK           CLEAR     67  47  48 S5        30.01R
$$
...OTHER STATIONS IN TEXAS...

CITY           SKY/WX    TMP DP  RH WIND       PRES   REMARKS
ABILENE        MOCLDY    65  62  90 S17       30.01S
AMARILLO       FOG       56  54  93 E14       30.02R VSB 1/4
AUSTIN         PTCLDY    67  56  67 S8        30.08R
BROWNSVILLE    CLOUDY    70  66  87 SE7       30.06F
CORPUS CHRISTI MOCLDY    71  65  81 SE13      30.07S
DALLAS FTW     LGT RAIN  63  61  93 E7        30.07F FOG
DEL RIO        CLEAR     69  65  86 E8        30.02R
EL PASO        CLEAR     71  38  29 NW3       30.08R
HOUSTON INT    PTCLDY    67  60  78 S7        30.11R
LUBBOCK        PTCLDY    59  55  87 SW7       30.00R
SAN ANGELO     CLEAR     66  62  87 S8        30.04R
SAN ANTONIO    CLOUDY    72  61  68 S12       30.07R
WACO           CLOUDY    69  63  81 CALM      30.05S
WICHITA FALLS  NOT AVBL
$$
...OTHER LOCATIONS IN NEW MEXICO...

CITY           SKY/WX    TMP DP  RH WIND       PRES   REMARKS
ALAMAGORDO     CLEAR     59  37  44 E6        30.10R
ALBUQUERQUE    MOCLDY    65  35  33 SE14      30.11R
CANNON AFB     MOCLDY    60  44  56 W6        30.06R
CLOVIS           N/A     55  46  71 NW7       30.08S
HOLLOMAN AFB   CLEAR     64  42  45 S3        30.09R
ROSWELL        CLEAR     68  39  34 VRB3      30.04R
RUIDOSO        CLEAR     50  36  57 SW6       30.23R
SANTA FE       CLOUDY    56  34  43 N5        30.14R
TRUTH OR CONSE PTCLDY    60  39  45 W5        30.12R
TUCUMCARI      CLEAR     58  40  51 W9        30.04R
$$

USA.gov is the U.S. government's official web portal to all federal, state and local government web resources and services.